Cloud_Cover
0 0 0 0 0 0 0 0 0 0 0 0 0 0 0 0 0 0 0 0 68 100 99 59 100 100 72 31 5 5 5 5 96 21 0 0 0 0 0 0 0 0 0 0 0 0 0 0 0
0 0 0 0 0 0 0 0 0 0 0 0 0 0 0 0 0 0 0 0 10 100 66 84 82 100 100 100 100 79 7 41 38 15 0 0 0 0 0 0 0 0 0 0 0 0 0 0 0
0 0 0 0 0 0 0 0 0 0 0 0 0 0 3 2 0 0 0 0 0 20 100 100 99 99 100 100 100 85 57 76 40 5 5 0 0 1 4 2 5 5 0 0 0 0 0 0 0
0 0 0 0 0 0 0 0 0 0 0 0 0 0 0 0 0 0 0 0 0 0 92 100 100 87 100 80 100 97 100 32 27 5 5 5 5 1 4 5 0 0 0 0 0 0 0 0 0
0 0 0 0 0 0 0 0 0 0 0 0 0 0 0 0 0 4 19 1 5 4 100 100 100 98 79 99 100 100 100 100 45 9 8 9 9 5 5 4 0 0 0 0 0 0 0 0 0
0 0 0 0 0 0 0 0 0 0 0 0 0 0 0 0 0 61 100 55 15 5 85 100 100 100 94 100 100 100 100 100 100 78 68 63 10 5 5 5 4 0 0 0 0 0 0 0 0
0 0 0 0 0 0 0 0 0 0 0 0 0 0 0 0 0 0 98 100 70 5 18 100 100 100 100 100 100 100 100 100 72 5 8 7 8 5 5 5 2 0 0 0 0 0 0 0 0
0 0 0 0 0 0 0 0 0 0 0 0 0 0 0 1 0 1 52 100 95 17 5 100 100 99 100 100 100 100 100 100 79 5 5 5 5 5 5 0 0 0 0 0 0 0 0 0 0
0 0 0 0 0 0 4 4 4 0 0 0 0 0 0 0 0 42 62 100 100 15 46 100 100 100 100 100 100 100 100 100 78 27 6 5 5 5 30 2 0 0 0 0 0 0 0 0 5
0 2 0 0 0 2 5 4 4 2 5 0 2 0 0 0 0 70 42 100 93 37 66 100 100 100 100 100 100 100 100 100 100 100 16 5 4 0 17 4 0 0 0 0 0 0 0 7 4
4 0 0 0 0 2 4 4 5 4 2 2 0 0 0 0 0 2 94 97 100 88 100 100 96 87 100 100 100 100 100 100 100 100 98 40 5 21 97 60 75 65 5 0 4 12 30 24 0
0 0 0 0 0 0 0 0 1 2 0 0 0 0 0 0 0 0 11 46 100 78 70 100 75 100 100 100 100 100 99 100 99 98 91 100 9 5 8 95 98 5 5 3 0 90 100 23 0
3 0 0 0 0 0 0 0 0 0 0 0 0 0 0 0 0 0 0 56 100 100 83 100 63 100 100 100 88 94 100 100 100 72 68 100 100 66 31 92 100 84 5 5 5 84 100 84 0
0 0 0 0 0 0 0 0 0 0 0 0 0 0 0 0 0 0 0 19 50 82 100 100 90 100 86 45 83 96 100 99 74 90 48 100 100 9 50 63 100 91 9 55 47 57 64 92 44
0 14 0 0 0 0 0 0 0 0 0 3 0 0 0 0 0 0 0 0 100 100 100 100 100 100 57 39 38 94 100 100 53 5 5 95 95 13 59 100 100 75 5 5 68 100 100 100 46
0 0 2 0 0 0 0 0 0 0 0 2 4 0 0 0 0 0 0 0 100 100 100 100 100 100 85 49 5 89 100 100 24 5 14 91 100 100 91 100 100 100 64 84 98 100 86 35 0
5 0 0 0 0 0 1 0 0 0 0 4 0 0 0 0 0 0 0 0 100 100 100 100 100 100 100 100 98 32 89 100 100 95 64 95 100 98 100 95 100 100 59 6 5 14 18 5 42
44 0 0 0 0 0 0 0 0 0 0 0 0 0 0 0 0 0 0 9 72 100 100 100 100 100 100 100 72 100 61 66 100 100 100 100 100 100 61 64 100 100 92 81 76 52 25 55 6
0 0 0 0 0 0 0 0 0 1 2 0 0 0 0 0 0 0 0 40 100 100 100 100 100 100 100 100 99 19 56 39 100 64 78 95 96 87 100 62 96 97 100 56 65 78 36 20 25
0 0 1 5 3 1 3 0 0 0 9 0 0 0 0 0 0 0 0 9 100 100 100 100 100 100 100 100 100 100 100 100 100 91 96 93 97 100 76 66 100 47 43 22 76 100 83 98 66
5 2 3 1 5 0 5 2 0 2 30 3 0 0 0 0 0 0 0 0 87 100 100 100 100 100 100 100 100 100 100 100 100 97 100 100 100 100 100 69 93 69 41 29 97 13 51 22 43
17 5 5 3 5 2 5 5 0 0 4 91 0 0 0 0 0 0 0 2 100 100 100 100 100 100 100 100 100 100 100 100 100 100 100 100 100 100 100 91 17 96 94 89 17 98 75 100 100
99 20 5 5 5 8 4 5 5 5 0 21 47 0 0 0 0 0 0 2 100 100 100 100 100 100 100 100 100 100 100 100 86 100 100 100 100 100 100 38 100 93 34 60 70 100 100 100 100
88 83 61 73 51 74 5 5 5 4 5 5 32 58 0 0 0 0 0 5 100 100 100 100 100 100 100 100 100 100 100 100 100 100 100 100 100 100 85 83 100 36 81 78 53 100 100 100 100
35 23 61 96 99 41 10 5 6 3 2 1 2 34 45 0 0 0 0 2 100 100 100 100 100 100 100 100 100 100 100 88 100 100 100 100 100 100 100 100 100 84 93 99 100 100 100 100 100
47 36 5 88 100 100 6 5 2 14 58 6 0 5 3 0 0 0 0 0 72 100 100 100 100 100 100 100 100 100 100 87 100 100 100 100 100 100 100 100 100 100 100 100 100 100 100 100 100
90 67 7 80 56 100 100 5 25 7 5 5 5 5 5 0 0 0 0 0 0 94 100 100 100 100 100 100 100 100 100 100 100 100 100 100 100 98 100 100 100 100 100 100 100 100 100 100 100
22 55 55 89 100 100 100 88 4 27 5 5 5 5 3 5 5 4 0 0 2 62 100 100 100 100 100 100 100 100 100 100 100 100 84 98 100 100 100 100 100 100 100 100 100 100 100 100 100
5 9 31 53 81 100 100 100 36 0 0 0 0 0 0 0 5 0 0 0 4 100 100 100 100 100 100 100 100 100 100 100 100 100 100 100 100 100 100 100 100 100 99 100 100 100 100 100 100
95 5 5 5 5 75 100 100 100 5 0 3 5 0 0 0 0 0 0 0 16 100 100 100 100 100 100 100 100 100 100 100 100 100 100 100 100 100 100 100 100 100 100 100 100 100 100 92 100